Location: 22
(39.7117°N, 89.5929°W)
Time: 13:24:37
(UTC-05:00)

Courier 1B Rocket - All Passes

Search period start: 20 July 2025 00:00
Search period end: 30 July 2025 00:00
Orbit: 920 x 1201 km, 28.2° (Epoch: 19 July)

Date Brightness Start Highest point End Pass type
(mag) Time Alt. Az. Time Alt. Az. Time Alt. Az.
20 Jul - 09:39:16 10° S 09:42:06 13° SSE 09:44:57 10° SE daylight
20 Jul - 11:29:31 10° SW 11:34:32 26° S 11:39:39 10° ESE daylight
20 Jul - 13:21:50 10° WSW 13:27:09 29° S 13:32:42 10° SE daylight
20 Jul - 15:15:18 10° WSW 15:19:47 20° SSW 15:24:28 10° SSE daylight
21 Jul - 10:28:58 10° SW 10:33:37 22° SSE 10:38:17 10° ESE daylight
21 Jul - 12:20:54 10° WSW 12:26:11 29° S 12:31:37 10° ESE daylight
21 Jul - 14:13:57 10° WSW 14:18:49 23° SSW 14:23:52 10° SE daylight
21 Jul - 16:10:01 10° SW 16:11:21 11° SSW 16:12:42 10° SSW daylight
22 Jul - 09:28:40 10° SSW 09:32:43 18° SSE 09:36:46 10° ESE daylight
22 Jul - 11:20:03 10° SW 11:25:14 28° S 11:30:30 10° ESE daylight
22 Jul - 13:12:47 10° WSW 13:17:52 26° S 13:23:06 10° SE daylight
22 Jul - 15:07:05 10° SW 15:10:24 14° SSW 15:13:48 10° S daylight
23 Jul - 08:28:48 10° S 08:31:50 14° SSE 08:34:52 10° SE daylight
23 Jul - 10:19:17 10° SW 10:24:19 25° S 10:29:20 10° ESE daylight
23 Jul - 12:11:44 10° WSW 12:16:55 28° S 12:22:12 10° SE daylight
23 Jul - 14:05:19 10° WSW 14:09:28 18° SSW 14:13:44 10° SSE daylight
24 Jul - 09:18:38 10° SW 09:23:23 22° SSE 09:28:04 10° ESE daylight
24 Jul - 11:10:43 10° WSW 11:15:58 29° S 11:21:14 10° ESE daylight
24 Jul - 13:03:54 10° WSW 13:08:33 22° SSW 13:13:18 10° SE daylight
25 Jul - 08:18:11 10° SSW 08:22:29 19° SSE 08:26:40 10° ESE daylight
25 Jul - 10:09:47 10° SW 10:15:01 28° S 10:20:13 10° ESE daylight
25 Jul - 12:02:40 10° WSW 12:07:38 25° S 12:12:39 10° SE daylight
25 Jul - 13:57:12 10° SW 14:00:06 13° SSW 14:03:01 10° S daylight
26 Jul - 07:18:07 10° S 07:21:34 15° SSE 07:24:56 10° SE daylight
26 Jul - 09:08:54 10° SW 09:14:05 26° S 09:19:09 10° ESE daylight
26 Jul - 11:01:30 10° WSW 11:06:42 28° S 11:11:52 10° SE daylight
26 Jul - 12:55:16 10° WSW 12:59:12 17° SSW 13:03:11 10° SSE daylight
27 Jul - 06:19:02 10° S 06:20:38 11° SSE 06:22:13 10° SE daylight
27 Jul - 08:08:08 10° SW 08:13:08 23° SSE 08:17:58 10° ESE daylight
27 Jul - 10:00:24 10° WSW 10:05:46 29° S 10:11:00 10° ESE daylight
27 Jul - 11:53:44 10° WSW 11:58:19 21° SSW 12:02:54 10° SSE daylight
28 Jul - 07:07:32 10° SSW 07:12:11 20° SSE 07:16:39 10° ESE daylight
28 Jul - 08:59:20 10° SW 09:04:48 29° S 09:10:04 10° ESE daylight
28 Jul - 10:52:24 10° WSW 10:57:25 25° S 11:02:22 10° SE daylight
28 Jul - 12:47:14 10° SW 12:49:50 13° SSW 12:52:27 10° S daylight
29 Jul - 06:07:16 10° SSW 06:11:13 16° SSE 06:15:03 10° ESE daylight
29 Jul - 07:58:20 10° SW 08:03:49 27° S 08:09:03 10° ESE daylight
29 Jul - 09:51:07 10° WSW 09:56:29 28° S 10:01:41 10° SE daylight
29 Jul - 11:45:05 10° WSW 11:48:58 17° SSW 11:52:50 10° SSE daylight
